Voltar ao catálogo

STARLINK-5686

AtivoComunicaçõesVLEO
NORAD 55450·PAYLOAD·🇺🇸 United States

Lançado Feb 2, 2023 de Cape Canaveral Space Force Station

Loading…

Próximas Passagens (próximas 24 horas)

TLE

AtualizadoSource: CelesTrak SupGP

Época: Sep 15, 2026, 02:28 UTC

1 55450C 23015B   26258.10326389  .00019388  00000+0  70237-3 0  2583
2 55450  43.0037 339.2834 0001780 285.4646 208.0339 15.27561816    19

Acompanhe STARLINK-5686 em tempo real com AllMySat

Download on the App Store